Regional Weather Roundup
Issued by NWS

Home | Current Version | Previous Version | Text Only | Print | Product List | Glossary On
Versions: 1 2 3 4 5 6 7 8 9 10 11 12 13 14 15 16 17 18 19 20 21 22 23 24 25 26 27 28 29 30 31 32 33 34 35 36 37 38 39 40 41 42 43 44 45 46 47 48 49 50
000
ASUS45 KABQ 010410
RWRNM
NEW MEXICO REGIONAL WEATHER ROUNDUP
NATIONAL WEATHER SERVICE ALBUQUERQUE NM
1000 PM MDT MON AUG 31 2015

NOTE: "FAIR" MEANS FEW OR NO CLOUDS BELOW 12,000 FEET AGL WITH NO
       SIGNIFICANT WEATHER OR OBSTRUCTIONS TO VISION.

      THIS PRODUCT IS RELEASED AS TWO VERSIONS.  ONE VERSION NEAR
      THE TOP OF THE HOUR CONTAINING PRELIMINARY DATA FROM ALBUQUERQUE
      AND OTHER STATIONS.  A FINAL VERSION WITH ADDITIONAL DATA IS
      ISSUED ABOUT 10 MINUTES AFTER THE HOUR.

NMZ501-503-504-510>518-010500-
NORTHWEST PLATEAU/NORTHCENTRAL MOUNTAINS

CITY           SKY/WX    TMP DP  RH WIND       PRES   REMARKS
FARMINGTON     CLEAR     73  47  39 W7        30.16R
LOS ALAMOS     MOCLDY    69  46  44 N12       30.29R
SANTA FE       MOCLDY    72  45  37 SE6       30.21R
TAOS           CLOUDY    63  43  48 N8        30.30R
ANGEL FIRE     FAIR      51  49  94 CALM      30.39R

$$
NMZ402-403-502-505>509-010500-
WESTCENTRAL MOUNTAINS/SOUTHWEST MOUNTAINS

CITY           SKY/WX    TMP DP  RH WIND       PRES   REMARKS
GALLUP         CLOUDY    64  51  62 SE16      30.30R
GRANTS         CLOUDY    66  50  56 NW17G25   30.31R
SILVER CITY      N/A     70  54  56 W14       30.21R

$$
NMZ407-409-411-412-010500-
SOUTHERN DESERTS

CITY           SKY/WX    TMP DP  RH WIND       PRES   REMARKS
LORDSBURG      FAIR      70  59  68 NW13      30.14R
DEMING         MOCLDY    75  53  46 W3        30.08R
LAS CRUCES     PTCLDY    77  46  32 NW6       30.09R
HOLLOMAN AFB   PTCLDY    80  50  34 NE5       30.02R
ALAMOGORDO     PTCLDY    79  48  34 SE8       30.04R
T OR C         PTCLDY    75  50  41 N7        30.10R

$$
NMZ519>523-010500-
CENTRAL VALLEYS/CENTRAL HIGHLANDS

CITY           SKY/WX    TMP DP  RH WIND       PRES   REMARKS
ALBUQUERQUE    MOCLDY    76  47  35 SE5       30.14S
DOUBLE EAGLE   CLEAR     70  48  46 NW6       30.18R
MORIARTY ARPT  FAIR      62  45  52 CALM      30.21R
CLINES CORNERS PTCLDY    63  44  50 W13       30.25R
BELEN          FAIR      74  45  34 SW6       30.14S
SOCORRO        FAIR      74  49  40 CALM      30.10R

$$
NMZ524>526-539-540-010500-
SOUTHCENTRAL MOUNTAINS

CITY           SKY/WX    TMP DP  RH WIND       PRES   REMARKS
RUIDOSO        PTCLDY    64  50  59 MISG      30.28S

$$
NMZ527>531-010500-
NORTHEAST HIGHLANDS/NORTHEAST PLAINS

CITY           SKY/WX    TMP DP  RH WIND       PRES   REMARKS
LAS VEGAS      MOCLDY    66  49  54 N7        30.25R
RATON          CLOUDY    68  46  45 NE3       30.19R
CLAYTON        MOCLDY    71  53  52 S8        30.09R

$$
NMZ532>537-010500-
EASTCENTRAL PLAINS

CITY           SKY/WX    TMP DP  RH WIND       PRES   REMARKS
TUCUMCARI      PTCLDY    80  48  32 S13       30.01R
CANNON AFB     CLEAR     70  51  51 SE7       30.08R
CLOVIS AIRPORT CLEAR     70  48  46 S7        30.09R

$$
NMZ028-029-538-010500-
SOUTHEAST PLAINS

CITY           SKY/WX    TMP DP  RH WIND       PRES   REMARKS
ROSWELL        CLEAR     76  49  38 SW3       30.02R
ARTESIA        CLEAR     81  48  32 S9        30.02R
CARLSBAD       CLEAR     79  45  29 S7        30.00
HOBBS            N/A     72  54  53 CALM      30.06R


$$



USA.gov is the U.S. government's official web portal to all federal, state and local government web resources and services.